GW6788 Weather Reports


time (UTC)temp
F
wind
direction
speed
knots
gust
knots
rain 1hr
in
rain 24hr
in
rain mn
in
humidity
%
barometer
mb
20260906060514 73 54 0.9 1.7 0.00 0.00 0.00 88 1013.4
20260906060033 73 63 0.9 1.7 0.00 0.00 0.00 88 1013.4
20260906055515 73 36 0.9 1.7 0.00 0.00 0.00 88 1013.4
20260906055017 73 25 0.0 1.7 0.00 0.00 0.00 88 1013.5
20260906054548 73 4 0.0 1.7 0.00 0.00 0.00 87 1013.6
20260906054010 73 29 0.0 1.7 0.00 0.00 0.00 88 1013.5
20260906053510 73 29 0.0 1.7 0.00 0.00 0.00 88 1013.6
20260906053028 73 34 0.0 1.7 0.00 0.00 0.00 88 1013.6
20260906052512 73 36 0.0 1.7 0.00 0.00 0.00 88 1013.6
20260906052014 73 38 0.0 0.9 0.00 0.00 0.00 88 1013.7
20260906051532 73 48 0.9 1.7 0.00 0.00 0.00 88 1013.8
20260906051004 73 31 0.9 1.7 0.00 0.00 0.00 88 1013.8
20260906050503 73 31 0.9 1.7 0.00 0.00 0.00 88 1013.9
20260906050011 73 340 0.0 1.7 0.00 0.00 0.00 88 1014.0
20260906045505 73 339 0.0 1.7 0.00 0.00 0.00 88 1013.9
20260906045006 73 340 0.0 1.7 0.00 0.00 0.00 88 1013.8
20260906044517 73 30 0.0 1.7 0.00 0.00 0.00 88 1014.0
20260906044005 73 30 0.0 1.7 0.00 0.00 0.00 88 1014.0
20260906043512 73 30 0.0 1.7 0.00 0.00 0.00 88 1013.9
20260906043020 73 30 0.9 1.7 0.00 0.00 0.00 88 1013.8
20260906042511 73 31 0.0 1.7 0.00 0.00 0.00 87 1013.8
20260906042014 74 31 0.0 1.7 0.00 0.00 0.00 87 1013.9
20260906041504 74 31 0.0 1.7 0.00 0.00 0.00 87 1013.9
20260906041005 74 34 0.0 1.7 0.00 0.00 0.00 87 1014.0
20260906040507 74 34 0.0 0.9 0.00 0.00 0.00 87 1014.1
20260906040007 74 109 0.0 1.7 0.00 0.00 0.00 87 1014.1
20260906035504 74 164 0.0 1.7 0.00 0.00 0.00 87 1014.2
20260906035007 74 160 0.0 1.7 0.00 0.00 0.00 87 1014.3
20260906034519 74 159 0.0 1.7 0.00 0.00 0.00 87 1014.3
20260906034005 74 157 0.9 1.7 0.00 0.00 0.00 87 1014.2
20260906033505 74 230 0.9 1.7 0.00 0.00 0.00 87 1014.1
20260906033020 74 273 0.0 1.7 0.00 0.00 0.00 87 1014.2
20260906032511 74 273 0.0 1.7 0.00 0.00 0.00 87 1014.3
20260906032011 74 273 0.0 1.7 0.00 0.00 0.00 86 1014.2
20260906031555 75 10 0.0 0.9 0.00 0.00 0.00 86 1014.3
20260906031014 75 332 0.0 1.7 0.00 0.00 0.00 86 1014.1
20260906030503 75 256 0.0 1.7 0.00 0.00 0.00 85 1014.1
20260906030011 75 257 0.0 1.7 0.00 0.00 0.00 86 1014.1
20260906025508 75 257 0.0 1.7 0.00 0.00 0.00 86 1014.0
20260906025006 75 257 0.0 1.7 0.00 0.00 0.00 86 1014.0
20260906024533 75 261 0.0 1.7 0.00 0.00 0.00 87 1014.0
20260906024006 75 289 0.0 1.7 0.00 0.00 0.00 86 1014.0
20260906023506 75 293 0.0 1.7 0.00 0.00 0.00 86 1014.0
20260906023020 75 347 0.0 1.7 0.00 0.00 0.00 86 1013.9
20260906022508 75 347 0.0 1.7 0.00 0.00 0.00 86 1013.8
20260906022011 75 347 0.0 1.7 0.00 0.00 0.00 87 1013.8
20260906021526 75 346 0.0 1.7 0.00 0.00 0.00 87 1013.7
20260906021010 75 345 0.0 1.7 0.00 0.00 0.00 86 1013.8
20260906020514 75 314 0.0 1.7 0.00 0.00 0.00 86 1013.7
20260906020028 75 280 0.9 1.7 0.00 0.00 0.00 86 1013.6
20260906015513 75 278 0.9 0.9 0.00 0.00 0.00 86 1013.7
20260906015004 76 278 0.9 0.9 0.00 0.00 0.00 85 1013.8
20260906014516 76 278 0.0 0.9 0.00 0.00 0.00 85 1013.8
20260906014003 76 278 0.0 1.7 0.00 0.00 0.00 84 1013.7
20260906013504 76 278 0.0 1.7 0.00 0.00 0.00 84 1013.7
20260906013017 77 278 0.9 1.7 0.00 0.00 0.00 83 1013.6
20260906012511 77 27 0.0 0.9 0.00 0.00 0.00 83 1013.5
20260906012008 77 24 0.0 1.7 0.00 0.00 0.00 83 1013.5
20260906011523 77 24 0.0 1.7 0.00 0.00 0.00 82 1013.3
20260906011013 77 24 0.0 1.7 0.00 0.00 0.00 83 1013.4
20260906010512 78 264 0.0 1.7 0.00 0.00 0.00 83 1013.4
20260906010042 78 264 0.9 1.7 0.00 0.00 0.00 82 1013.3
20260906005511 79 86 0.0 1.7 0.00 0.00 0.00 80 1013.3
20260906005014 79 239 0.0 1.7 0.00 0.00 0.00 81 1013.3
20260906004535 79 239 0.0 1.7 0.00 0.00 0.00 81 1013.3
20260906004003 79 239 0.0 1.7 0.00 0.00 0.00 80 1013.3
20260906003503 80 239 0.0 1.7 0.00 0.00 0.00 79 1013.2
20260906003014 80 218 0.0 0.0 0.00 0.00 0.00 79 1013.1
20260906002504 80 218 0.0 1.7 0.00 0.00 0.00 78 1013.1
20260906002012 81 218 0.0 1.7 0.00 0.00 0.00 77 1012.9
20260906001518 81 209 0.0 1.7 0.00 0.00 0.00 75 1012.9
20260906001007 82 88 0.0 1.7 0.00 0.00 0.00 74 1012.9
20260906000512 82 171 0.0 1.7 0.00 0.00 0.00 70 1012.7
20260906000027 82 171 0.0 1.7 0.00 0.00 0.00 70 1012.6
20260905235513 83 191 0.9 1.7 0.00 0.00 0.00 70 1012.5
20260905235017 83 273 0.0 1.7 0.00 0.00 0.00 71 1012.4
20260905234532 83 312 0.0 0.9 0.00 0.00 0.00 70 1012.4
20260905234014 84 312 0.0 1.7 0.00 0.00 0.00 68 1012.3
20260905233517 84 312 0.0 1.7 0.00 0.00 0.00 67 1012.5
20260905233030 84 289 0.0 1.7 0.00 0.00 0.00 67 1012.4
20260905232504 84 264 0.9 1.7 0.00 0.00 0.00 66 1012.3
20260905232004 84 267 0.9 2.6 0.00 0.00 0.00 66 1012.4
20260905231513 85 294 0.9 2.6 0.00 0.00 0.00 66 1012.3
20260905231009 85 275 1.7 2.6 0.00 0.00 0.00 64 1012.3
20260905230509 86 265 1.7 2.6 0.00 0.00 0.00 64 1012.4
20260905230031 86 261 1.7 2.6 0.00 0.00 0.00 63 1012.5
20260905225511 86 249 0.9 2.6 0.00 0.00 0.00 63 1012.4
20260905225012 86 263 1.7 2.6 0.00 0.00 0.00 65 1012.3
20260905224527 86 336 0.0 1.7 0.00 0.00 0.00 62 1012.3
20260905224013 86 7 0.9 3.5 0.00 0.00 0.00 63 1012.3
20260905223515 86 3 0.9 3.5 0.00 0.00 0.00 63 1012.2
20260905223032 86 17 0.9 4.3 0.00 0.00 0.00 64 1012.2
20260905222516 86 31 2.6 4.3 0.00 0.00 0.00 64 1012.3
20260905222018 86 4 0.9 2.6 0.00 0.00 0.00 64 1012.3
20260905221511 86 26 1.7 2.6 0.00 0.00 0.00 64 1012.3
20260905221005 86 358 0.9 3.5 0.00 0.00 0.00 62 1012.2
20260905220508 86 33 2.6 3.5 0.00 0.00 0.00 64 1012.3
20260905220023 86 349 2.6 3.5 0.00 0.00 0.00 64 1012.4
20260905215511 86 30 0.0 3.5 0.00 0.00 0.00 64 1012.4
20260905215009 86 314 1.7 3.5 0.00 0.00 0.00 63 1012.5
20260905214522 85 31 0.9 2.6 0.00 0.00 0.00 64 1012.7
20260905214014 85 34 0.9 2.6 0.00 0.00 0.00 65 1012.9
20260905213514 84 126 0.0 1.7 0.00 0.00 0.00 65 1013.0
20260905213030 84 31 0.0 2.6 0.00 0.00 0.00 66 1013.1
20260905212516 84 30 0.9 2.6 0.00 0.00 0.00 65 1013.0
20260905212014 83 29 0.9 2.6 0.00 0.00 0.00 66 1013.1
20260905211555 83 296 0.0 2.6 0.00 0.00 0.00 66 1013.1
20260905211020 82 273 1.7 2.6 0.00 0.00 0.00 66 1013.2
20260905210507 82 259 0.9 2.6 0.00 0.00 0.00 66 1013.1
20260905210014 82 236 1.7 4.3 0.00 0.00 0.00 66 1013.0
20260905205507 82 242 1.7 4.3 0.00 0.00 0.00 67 1012.9
20260905205009 81 270 2.6 4.3 0.00 0.00 0.00 67 1013.0
20260905204524 81 299 1.7 4.3 0.00 0.00 0.00 68 1013.0
20260905204015 80 287 1.7 4.3 0.00 0.00 0.00 70 1013.1
20260905203510 80 309 1.7 3.5 0.00 0.00 0.00 70 1013.3
20260905203027 80 277 1.7 6.1 0.00 0.00 0.00 72 1013.4
20260905202513 79 276 2.6 6.1 0.00 0.00 0.00 74 1013.3
20260905202014 80 259 3.5 6.1 0.00 0.00 0.00 74 1013.3
20260905201541 80 259 1.7 5.2 0.00 0.00 0.00 73 1013.2
20260905201014 80 285 1.7 4.3 0.00 0.00 0.00 70 1013.0
20260905200518 80 86 0.9 1.7 0.00 0.00 0.00 72 1012.9
20260905200036 80 178 0.9 1.7 0.00 0.00 0.00 71 1013.4
20260905195506 80 234 0.9 1.7 0.00 0.00 0.00 72 1013.6
20260905195009 80 186 0.9 1.7 0.00 0.00 0.00 72 1013.7
20260905194520 80 349 0.0 2.6 0.00 0.00 0.00 72 1013.9
20260905194011 79 299 0.0 2.6 0.00 0.00 0.00 74 1013.9
20260905193512 79 52 1.7 3.5 0.00 0.00 0.00 74 1013.9
20260905193026 79 345 0.9 4.3 0.00 0.00 0.00 75 1014.0
20260905192512 79 287 1.7 5.2 0.00 0.00 0.00 75 1014.0
20260905192012 79 277 3.5 5.2 0.00 0.00 0.00 75 1013.8
20260905191530 79 275 0.9 5.2 0.00 0.00 0.00 74 1013.4
20260905191016 79 68 3.5 5.2 0.00 0.00 0.00 75 1012.9
20260905190515 79 30 3.5 4.3 0.00 0.00 0.00 74 1012.8
20260905190032 79 3 0.9 2.6 0.00 0.00 0.00 74 1012.8
20260905185516 78 29 0.0 2.6 0.00 0.00 0.00 75 1012.9
20260905185016 78 6 0.9 3.5 0.00 0.00 0.00 77 1013.0
20260905184533 78 217 0.9 3.5 0.00 0.00 0.00 77 1013.0
20260905184010 78 31 1.7 3.5 0.00 0.00 0.00 77 1013.1
20260905183510 78 29 2.6 4.3 0.00 0.00 0.00 76 1013.3
20260905183032 78 95 0.0 6.1 0.00 0.00 0.00 75 1013.3
20260905182512 78 45 3.5 8.7 0.00 0.00 0.00 75 1013.5
20260905182012 79 30 3.5 8.7 0.00 0.00 0.00 73 1013.6
20260905181526 80 29 4.3 12.2 0.00 0.00 0.00 71 1013.9
20260905181015 81 28 7.8 14.8 0.00 0.00 0.00 67 1013.9
20260905180512 83 39 6.1 16.5 0.00 0.00 0.00 66 1014.3
20260905180008 88 65 8.7 16.5 0.00 0.00 0.00 56 1013.9
20260905175507 93 353 9.6 15.6 0.00 0.00 0.00 46 1014.1
20260905175004 94 30 4.3 7.8 0.00 0.00 0.00 49 1013.9
20260905174514 95 39 3.5 8.7 0.00 0.00 0.00 50 1013.9
20260905174008 95 11 3.5 8.7 0.00 0.00 0.00 50 1014.2
20260905173508 95 22 5.2 8.7 0.00 0.00 0.00 51 1014.4
20260905173048 95 30 2.6 5.2 0.00 0.00 0.00 49 1014.3
20260905172511 95 294 1.7 6.1 0.00 0.00 0.00 51 1014.2
20260905172012 94 20 0.9 7.8 0.00 0.00 0.00 51 1014.5
20260905171503 94 293 2.6 7.8 0.00 0.00 0.00 50 1014.6
20260905171003 95 339 3.5 7.0 0.00 0.00 0.00 49 1014.6
20260905170503 95 327 4.3 7.8 0.00 0.00 0.00 49 1014.6
20260905170007 94 284 2.6 7.8 0.00 0.00 0.00 49 1014.6
20260905165506 94 31 3.5 7.8 0.00 0.00 0.00 50 1014.7
20260905165004 94 30 3.5 7.8 0.00 0.00 0.00 50 1014.8
20260905164514 94 337 3.5 9.6 0.00 0.00 0.00 50 1014.8
20260905164008 94 38 4.3 9.6 0.00 0.00 0.00 52 1014.9
20260905163505 93 332 0.9 7.8 0.00 0.00 0.00 52 1014.9
20260905163017 93 29 1.7 5.2 0.00 0.00 0.00 57 1014.9
20260905162515 92 268 1.7 4.3 0.00 0.00 0.00 58 1015.0
20260905162010 92 38 0.9 6.1 0.00 0.00 0.00 60 1015.1
20260905161524 91 285 3.5 6.1 0.00 0.00 0.00 60 1015.1
20260905161015 91 278 2.6 6.1 0.00 0.00 0.00 59 1015.1
20260905160502 91 269 4.3 6.1 0.00 0.00 0.00 59 1015.2
20260905160006 91 269 2.6 5.2 0.00 0.00 0.00 59 1015.3
20260905155504 91 47 0.9 5.2 0.00 0.00 0.00 61 1015.3
20260905155003 90 303 2.6 4.3 0.00 0.00 0.00 61 1015.2
20260905154510 90 273 3.5 4.3 0.00 0.00 0.00 61 1015.2
20260905154010 90 263 0.9 4.3 0.00 0.00 0.00 62 1015.2
20260905153507 90 311 1.7 4.3 0.00 0.00 0.00 60 1015.3
20260905153015 90 270 2.6 4.3 0.00 0.00 0.00 63 1015.2
20260905152510 89 154 1.7 3.5 0.00 0.00 0.00 63 1015.2
20260905152010 89 266 0.9 3.5 0.00 0.00 0.00 64 1015.2
20260905151523 89 271 0.9 3.5 0.00 0.00 0.00 64 1015.2
20260905151015 88 242 2.6 3.5 0.00 0.00 0.00 63 1015.2
20260905150512 88 199 1.7 2.6 0.00 0.00 0.00 65 1015.2
20260905150027 88 310 0.9 3.5 0.00 0.00 0.00 66 1015.2
20260905145504 87 292 0.9 4.3 0.00 0.00 0.00 68 1015.2
20260905145004 87 262 1.7 4.3 0.00 0.00 0.00 68 1015.1
20260905144510 86 266 0.9 3.5 0.00 0.00 0.00 70 1015.2
20260905144003 86 265 2.6 3.5 0.00 0.00 0.00 70 1015.2
20260905143506 86 330 0.9 3.5 0.00 0.00 0.00 70 1015.3
20260905143016 85 269 2.6 4.3 0.00 0.00 0.00 70 1015.2
20260905142506 85 304 2.6 4.3 0.00 0.00 0.00 72 1015.2
20260905142008 85 224 1.7 3.5 0.00 0.00 0.00 74 1015.1
20260905141526 84 314 1.7 3.5 0.00 0.00 0.00 74 1015.2
20260905141010 84 229 0.9 3.5 0.00 0.00 0.00 74 1015.2
20260905140515 84 291 1.7 3.5 0.00 0.00 0.00 75 1015.2
20260905140028 83 268 1.7 3.5 0.00 0.00 0.00 76 1015.3
20260905135513 83 230 0.9 3.5 0.00 0.00 0.00 77 1015.2
20260905135014 83 265 1.7 4.3 0.00 0.00 0.00 77 1015.2
20260905134535 82 357 2.6 4.3 0.00 0.00 0.00 78 1015.2
20260905134004 82 311 1.7 3.5 0.00 0.00 0.00 79 1015.3
20260905133503 81 88 0.0 3.5 0.00 0.00 0.00 80 1015.4
20260905133010 81 280 0.9 3.5 0.00 0.00 0.00 81 1015.3
20260905132504 80 261 1.7 3.5 0.00 0.00 0.00 81 1015.3
20260905132008 80 261 1.7 3.5 0.00 0.00 0.00 82 1015.3
20260905131521 79 263 0.9 2.6 0.00 0.00 0.00 83 1015.4
20260905131008 79 29 0.0 2.6 0.00 0.00 0.00 84 1015.4
20260905130509 78 30 0.9 1.7 0.00 0.00 0.00 85 1015.4
20260905130025 77 304 0.0 2.6 0.00 0.00 0.00 86 1015.4
20260905125510 77 12 0.0 3.5 0.00 0.00 0.00 86 1015.5
20260905125012 77 29 1.7 3.5 0.00 0.00 0.00 86 1015.6
20260905124537 76 3 0.9 2.6 0.00 0.00 0.00 88 1015.6
20260905124018 76 338 0.0 1.7 0.00 0.00 0.00 88 1015.5
20260905123514 76 12 0.0 1.7 0.00 0.00 0.00 88 1015.6
20260905123009 75 257 0.0 1.7 0.00 0.00 0.00 89 1015.7
20260905122504 75 237 1.7 1.7 0.00 0.00 0.00 89 1015.6
20260905122005 75 255 0.9 0.9 0.00 0.00 0.00 89 1015.6
20260905121515 75 259 0.9 1.7 0.00 0.00 0.00 90 1015.4
20260905121007 74 265 0.0 1.7 0.00 0.00 0.00 90 1015.3
20260905120514 74 268 0.0 1.7 0.00 0.00 0.00 91 1015.2
20260905120027 74 269 0.0 1.7 0.00 0.00 0.00 91 1015.3
20260905115510 74 276 0.0 1.7 0.00 0.00 0.00 91 1015.2
20260905115012 74 276 0.0 0.9 0.00 0.00 0.00 91 1015.2
20260905114532 74 277 0.9 0.9 0.00 0.00 0.00 90 1015.1
20260905114017 74 33 0.0 0.0 0.00 0.00 0.00 91 1015.0
20260905113514 74 33 0.0 0.0 0.00 0.00 0.00 91 1015.0
20260905113031 74 31 0.0 0.0 0.00 0.00 0.00 91 1015.0
20260905112516 74 60 0.0 0.0 0.00 0.00 0.00 91 1015.0
20260905112003 74 60 0.0 0.0 0.00 0.00 0.00 92 1015.0
20260905111515 73 60 0.0 0.0 0.00 0.00 0.00 91 1014.8
20260905111008 73 66 0.0 0.0 0.00 0.00 0.00 91 1014.7
20260905110506 73 31 0.0 1.7 0.00 0.00 0.00 91 1014.7
20260905110021 73 31 0.0 1.7 0.00 0.00 0.00 90 1014.7
20260905105512 73 281 0.0 0.9 0.00 0.00 0.00 91 1014.6
20260905105013 74 281 0.0 0.9 0.00 0.00 0.00 91 1014.6
20260905104526 74 281 0.9 0.9 0.00 0.00 0.00 91 1014.5
20260905104011 74 280 0.0 0.9 0.00 0.00 0.00 91 1014.5
20260905103514 74 292 0.0 1.7 0.00 0.00 0.00 91 1014.5
20260905103029 73 29 0.0 1.7 0.00 0.00 0.00 91 1014.5
20260905102515 73 29 0.0 1.7 0.00 0.00 0.00 91 1014.4
20260905102015 74 31 0.9 1.7 0.00 0.00 0.00 91 1014.4
20260905101535 74 8 0.0 1.7 0.00 0.00 0.00 91 1014.3
20260905101014 74 9 0.0 1.7 0.00 0.00 0.00 91 1014.3
20260905100508 74 29 0.0 0.9 0.00 0.00 0.00 90 1014.4
20260905100020 74 29 0.0 1.7 0.00 0.00 0.00 91 1014.5
20260905095508 74 227 0.0 1.7 0.00 0.00 0.00 91 1014.4
20260905095013 74 250 0.0 1.7 0.00 0.00 0.00 91 1014.3
20260905094528 74 253 0.9 1.7 0.00 0.00 0.00 90 1014.3
20260905094013 74 262 0.0 1.7 0.00 0.00 0.00 90 1014.4
20260905093511 74 247 0.9 1.7 0.00 0.00 0.00 90 1014.4
20260905093028 74 270 0.0 1.7 0.00 0.00 0.00 90 1014.5
20260905092514 74 270 0.0 1.7 0.00 0.00 0.00 89 1014.3
20260905092014 74 266 0.9 1.7 0.00 0.00 0.00 89 1014.3
20260905091529 75 26 0.0 1.7 0.00 0.00 0.00 89 1014.3
20260905091016 75 26 0.0 1.7 0.00 0.00 0.00 89 1014.4
20260905090520 74 3 0.0 1.7 0.00 0.00 0.00 89 1014.4
20260905090033 75 3 0.0 1.7 0.00 0.00 0.00 89 1014.4
20260905085506 75 3 0.0 1.7 0.00 0.00 0.00 89 1014.3
20260905085009 75 29 0.0 1.7 0.00 0.00 0.00 89 1014.3
20260905084523 75 29 0.0 1.7 0.00 0.00 0.00 89 1014.3
20260905084009 75 29 0.0 1.7 0.00 0.00 0.00 89 1014.5
20260905083510 75 29 0.0 1.7 0.00 0.00 0.00 88 1014.5
20260905083027 75 278 0.0 1.7 0.00 0.00 0.00 88 1014.5
20260905082513 75 279 0.9 1.7 0.00 0.00 0.00 88 1014.4
20260905082014 75 19 0.0 1.7 0.00 0.00 0.00 88 1014.5
20260905081534 75 24 0.0 1.7 0.00 0.00 0.00 88 1014.5
20260905081003 75 31 0.0 1.7 0.00 0.00 0.00 88 1014.6
20260905080504 75 66 0.9 1.7 0.00 0.00 0.00 88 1014.7
20260905080014 75 52 0.9 1.7 0.00 0.00 0.00 88 1014.7
20260905075506 75 36 0.9 1.7 0.00 0.00 0.00 88 1014.8
20260905075005 75 339 0.0 1.7 0.00 0.00 0.00 88 1014.9
20260905074528 75 298 0.0 1.7 0.00 0.00 0.00 88 1014.8
20260905074011 75 298 0.0 1.7 0.00 0.00 0.00 88 1014.8
20260905073510 75 29 0.0 1.7 0.00 0.00 0.00 88 1014.9
20260905073005 75 29 0.0 1.7 0.00 0.00 0.00 88 1015.0
20260905072503 75 29 0.0 1.7 0.00 0.00 0.00 88 1015.0
20260905072002 76 34 0.0 1.7 0.00 0.00 0.00 89 1015.0
20260905071516 76 31 0.9 1.7 0.00 0.00 0.00 88 1015.0
20260905071002 76 3 0.0 1.7 0.00 0.00 0.00 88 1015.0
20260905070503 76 332 0.0 0.9 0.00 0.00 0.00 88 1015.1
20260905070011 76 332 0.0 1.7 0.00 0.00 0.00 88 1015.2
20260905065510 76 332 0.0 1.7 0.00 0.00 0.00 88 1015.2
20260905065004 76 289 0.0 1.7 0.00 0.00 0.00 88 1015.3
20260905064517 76 279 0.0 1.7 0.00 0.00 0.00 88 1015.4
20260905064011 76 273 0.9 1.7 0.00 0.00 0.00 88 1015.4
20260905063508 76 278 0.0 1.7 0.00 0.00 0.00 87 1015.4
20260905063027 76 7 0.0 1.7 0.00 0.00 0.00 87 1015.5
20260905062511 76 280 0.0 0.9 0.00 0.00 0.00 87 1015.5
20260905062014 77 278 0.0 1.7 0.00 0.00 0.00 87 1015.4
20260905061504 77 278 0.0 1.7 0.00 0.00 0.00 87 1015.5
20260905061001 77 278 0.0 1.7 0.00 0.00 0.00 86 1015.7